Year,Month,Day,Hour,Minute,Value (Times are PST for temperature in C)
2008,07,19,00,00,14.60
2008,07,19,00,01,14.60
2008,07,19,00,02,14.50
2008,07,19,00,03,14.50
2008,07,19,00,04,14.60
2008,07,19,00,05,14.60
2008,07,19,00,06,14.70
2008,07,19,00,07,14.60
2008,07,19,00,08,14.60
2008,07,19,00,09,14.60
2008,07,19,00,10,14.50
2008,07,19,00,11,14.50
2008,07,19,00,12,14.40
2008,07,19,00,13,14.30
2008,07,19,00,14,14.30
2008,07,19,00,15,14.20
2008,07,19,00,16,14.20
2008,07,19,00,17,14.10
2008,07,19,00,18,14.10
2008,07,19,00,19,14.20
2008,07,19,00,20,14.10
2008,07,19,00,21,14.10
2008,07,19,00,22,14.10
2008,07,19,00,23,14.10
2008,07,19,00,24,14.10
2008,07,19,00,25,14.10
2008,07,19,00,26,14.00
2008,07,19,00,27,14.00
2008,07,19,00,28,13.90
2008,07,19,00,29,13.90
2008,07,19,00,30,13.90
2008,07,19,00,31,13.80
2008,07,19,00,32,13.80
2008,07,19,00,33,13.80
2008,07,19,00,34,13.80
2008,07,19,00,35,13.70
2008,07,19,00,36,13.70
2008,07,19,00,37,13.70
2008,07,19,00,38,13.80
2008,07,19,00,39,13.70
2008,07,19,00,40,13.70
2008,07,19,00,41,13.70
2008,07,19,00,42,13.70
2008,07,19,00,43,13.70
2008,07,19,00,44,13.70
2008,07,19,00,45,13.70
2008,07,19,00,46,13.70
2008,07,19,00,47,13.60
2008,07,19,00,48,13.60
2008,07,19,00,49,13.60
2008,07,19,00,50,13.60
2008,07,19,00,51,13.60
2008,07,19,00,52,13.60
2008,07,19,00,53,13.50
2008,07,19,00,54,13.60
2008,07,19,00,55,13.50
2008,07,19,00,56,13.50
2008,07,19,00,57,13.50
2008,07,19,00,58,13.50
2008,07,19,00,59,13.40
2008,07,19,01,00,13.50
2008,07,19,01,01,13.50
2008,07,19,01,02,13.60
2008,07,19,01,03,13.60
2008,07,19,01,04,13.60
2008,07,19,01,05,13.60
2008,07,19,01,06,13.60
2008,07,19,01,07,13.60
2008,07,19,01,08,13.60
2008,07,19,01,09,13.60
2008,07,19,01,10,13.60
2008,07,19,01,11,13.60
2008,07,19,01,12,13.60
2008,07,19,01,13,13.70
2008,07,19,01,14,13.70
2008,07,19,01,15,13.80
2008,07,19,01,16,13.80
2008,07,19,01,17,13.80
2008,07,19,01,18,13.90
2008,07,19,01,19,13.90
2008,07,19,01,20,14.00
2008,07,19,01,21,14.00
2008,07,19,01,22,14.10
2008,07,19,01,23,14.10
2008,07,19,01,24,14.10
2008,07,19,01,25,14.20
2008,07,19,01,26,14.20
2008,07,19,01,27,14.20
2008,07,19,01,28,14.20
2008,07,19,01,29,14.30
2008,07,19,01,30,14.20
2008,07,19,01,31,14.20
2008,07,19,01,32,14.20
2008,07,19,01,33,14.30
2008,07,19,01,34,14.30
2008,07,19,01,35,14.40
2008,07,19,01,36,14.50
2008,07,19,01,37,14.60
2008,07,19,01,38,14.70
2008,07,19,01,39,14.80
2008,07,19,01,40,15.00
2008,07,19,01,41,15.00
2008,07,19,01,42,15.10
2008,07,19,01,43,15.20
2008,07,19,01,44,15.30
2008,07,19,01,45,15.50
2008,07,19,01,46,15.60
2008,07,19,01,47,15.70
2008,07,19,01,48,15.70
2008,07,19,01,49,15.80
2008,07,19,01,50,15.90
2008,07,19,01,51,15.90
2008,07,19,01,52,16.00
2008,07,19,01,53,16.10
2008,07,19,01,54,16.10
2008,07,19,01,55,16.20
2008,07,19,01,56,16.20
2008,07,19,01,57,16.30
2008,07,19,01,58,16.30
2008,07,19,01,59,16.30
2008,07,19,02,00,16.40
2008,07,19,02,01,16.40
2008,07,19,02,02,16.40
2008,07,19,02,03,16.40
2008,07,19,02,04,16.40
2008,07,19,02,05,16.40
2008,07,19,02,06,16.40
2008,07,19,02,07,16.40
2008,07,19,02,08,16.40
2008,07,19,02,09,16.40
2008,07,19,02,10,16.40
2008,07,19,02,11,16.40
2008,07,19,02,12,16.40
2008,07,19,02,13,16.40
2008,07,19,02,14,16.40
2008,07,19,02,15,16.40
2008,07,19,02,16,16.40
2008,07,19,02,17,16.40
2008,07,19,02,18,16.30
2008,07,19,02,19,16.30
2008,07,19,02,20,16.30
2008,07,19,02,21,16.30
2008,07,19,02,22,16.20
2008,07,19,02,23,16.20
2008,07,19,02,24,16.10
2008,07,19,02,25,16.00
2008,07,19,02,26,15.90
2008,07,19,02,27,15.70
2008,07,19,02,28,15.60
2008,07,19,02,29,15.40
2008,07,19,02,30,15.30
2008,07,19,02,31,15.20
2008,07,19,02,32,15.00
2008,07,19,02,33,15.00
2008,07,19,02,34,15.00
2008,07,19,02,35,14.80
2008,07,19,02,36,14.70
2008,07,19,02,37,14.60
2008,07,19,02,38,14.50
2008,07,19,02,39,14.50
2008,07,19,02,40,14.40
2008,07,19,02,41,14.40
2008,07,19,02,42,14.30
2008,07,19,02,43,14.30
2008,07,19,02,44,14.30
2008,07,19,02,45,14.30
2008,07,19,02,46,14.30
2008,07,19,02,47,14.30
2008,07,19,02,48,14.30
2008,07,19,02,49,14.30
2008,07,19,02,50,14.30
2008,07,19,02,51,14.30
2008,07,19,02,52,14.20
2008,07,19,02,53,14.20
2008,07,19,02,54,14.20
2008,07,19,02,55,14.10
2008,07,19,02,56,14.00
2008,07,19,02,57,13.90
2008,07,19,02,58,13.90
2008,07,19,02,59,13.90
2008,07,19,03,00,13.80
2008,07,19,03,01,13.80
2008,07,19,03,02,13.80
2008,07,19,03,03,13.80
2008,07,19,03,04,13.80
2008,07,19,03,05,13.80
2008,07,19,03,06,13.80
2008,07,19,03,07,13.70
2008,07,19,03,08,13.60
2008,07,19,03,09,13.60
2008,07,19,03,10,13.50
2008,07,19,03,11,13.50
2008,07,19,03,12,13.50
2008,07,19,03,13,13.40
2008,07,19,03,14,13.40
2008,07,19,03,15,13.30
2008,07,19,03,16,13.30
2008,07,19,03,17,13.20
2008,07,19,03,18,13.10
2008,07,19,03,19,13.00
2008,07,19,03,20,12.90
2008,07,19,03,21,12.90
2008,07,19,03,22,12.90
2008,07,19,03,23,12.80
2008,07,19,03,24,12.80
2008,07,19,03,25,12.80
2008,07,19,03,26,12.70
2008,07,19,03,27,12.60
2008,07,19,03,28,12.60
2008,07,19,03,29,12.60
2008,07,19,03,30,12.50
2008,07,19,03,31,12.60
2008,07,19,03,32,12.60
2008,07,19,03,33,12.50
2008,07,19,03,34,12.50
2008,07,19,03,35,12.40
2008,07,19,03,36,12.30
2008,07,19,03,37,12.30
2008,07,19,03,38,12.30
2008,07,19,03,39,12.20
2008,07,19,03,40,12.20
2008,07,19,03,41,12.20
2008,07,19,03,42,12.20
2008,07,19,03,43,12.10
2008,07,19,03,44,12.10
2008,07,19,03,45,12.00
2008,07,19,03,46,12.00
2008,07,19,03,47,11.90
2008,07,19,03,48,11.90
2008,07,19,03,49,11.90
2008,07,19,03,50,11.90
2008,07,19,03,51,11.90
2008,07,19,03,52,11.80
2008,07,19,03,53,11.80
2008,07,19,03,54,11.80
2008,07,19,03,55,11.80
2008,07,19,03,56,11.80
2008,07,19,03,57,11.80
2008,07,19,03,58,11.80
2008,07,19,03,59,11.80
2008,07,19,04,00,11.80
2008,07,19,04,01,11.80
2008,07,19,04,02,11.80
2008,07,19,04,03,11.80
2008,07,19,04,04,11.80
2008,07,19,04,05,11.80
2008,07,19,04,06,11.80
2008,07,19,04,07,11.80
2008,07,19,04,08,11.80
2008,07,19,04,09,11.80
2008,07,19,04,10,11.80
2008,07,19,04,11,11.80
2008,07,19,04,12,11.90
2008,07,19,04,13,11.90
2008,07,19,04,14,11.90
2008,07,19,04,15,11.90
2008,07,19,04,16,11.90
2008,07,19,04,17,11.90
2008,07,19,04,18,11.80
2008,07,19,04,19,11.80
2008,07,19,04,20,11.70
2008,07,19,04,21,11.70
2008,07,19,04,22,11.60
2008,07,19,04,23,11.70
2008,07,19,04,24,11.70
2008,07,19,04,25,11.70
2008,07,19,04,26,11.70
2008,07,19,04,27,11.70
2008,07,19,04,28,11.70
2008,07,19,04,29,11.70
2008,07,19,04,30,11.60
2008,07,19,04,31,11.70
2008,07,19,04,32,11.70
2008,07,19,04,33,11.70
2008,07,19,04,34,11.70
2008,07,19,04,35,11.70
2008,07,19,04,36,11.60
2008,07,19,04,37,11.60
2008,07,19,04,38,11.60
2008,07,19,04,39,11.50
2008,07,19,04,40,11.50
2008,07,19,04,41,11.50
2008,07,19,04,42,11.40
2008,07,19,04,43,11.40
2008,07,19,04,44,11.40
2008,07,19,04,45,11.40
2008,07,19,04,46,11.30
2008,07,19,04,47,11.30
2008,07,19,04,48,11.30
2008,07,19,04,49,11.30
2008,07,19,04,50,11.30
2008,07,19,04,51,11.30
2008,07,19,04,52,11.30
2008,07,19,04,53,11.30
2008,07,19,04,54,11.30
2008,07,19,04,55,11.20
2008,07,19,04,56,11.20
2008,07,19,04,57,11.20
2008,07,19,04,58,11.20
2008,07,19,04,59,11.20
2008,07,19,05,00,11.20
2008,07,19,05,01,11.20
2008,07,19,05,02,11.20
2008,07,19,05,03,11.20
2008,07,19,05,04,11.20
2008,07,19,05,05,11.20
2008,07,19,05,06,11.10
2008,07,19,05,07,11.10
2008,07,19,05,08,11.10
2008,07,19,05,09,11.10
2008,07,19,05,10,11.10
2008,07,19,05,11,11.10
2008,07,19,05,12,11.00
2008,07,19,05,13,11.00
2008,07,19,05,14,11.00
2008,07,19,05,15,11.00
2008,07,19,05,16,11.00
2008,07,19,05,17,11.00
2008,07,19,05,18,10.90
2008,07,19,05,19,10.90
2008,07,19,05,20,10.90
2008,07,19,05,21,10.90
2008,07,19,05,22,10.90
2008,07,19,05,23,10.90
2008,07,19,05,24,10.90
2008,07,19,05,25,10.80
2008,07,19,05,26,10.80
2008,07,19,05,27,10.80
2008,07,19,05,28,10.80
2008,07,19,05,29,10.80
2008,07,19,05,30,10.80
2008,07,19,05,31,10.90
2008,07,19,05,32,10.90
2008,07,19,05,33,10.90
2008,07,19,05,34,10.90
2008,07,19,05,35,10.80
2008,07,19,05,36,10.80
2008,07,19,05,37,10.80
2008,07,19,05,38,10.70
2008,07,19,05,39,10.70
2008,07,19,05,40,10.70
2008,07,19,05,41,10.70
2008,07,19,05,42,10.70
2008,07,19,05,43,10.70
2008,07,19,05,44,10.70
2008,07,19,05,45,10.70
2008,07,19,05,46,10.70
2008,07,19,05,47,10.70
2008,07,19,05,48,10.70
2008,07,19,05,49,10.70
2008,07,19,05,50,10.70
2008,07,19,05,51,10.70
2008,07,19,05,52,10.70
2008,07,19,05,53,10.70
2008,07,19,05,54,10.70
2008,07,19,05,55,10.70
2008,07,19,05,56,10.60
2008,07,19,05,57,10.60
2008,07,19,05,58,10.50
2008,07,19,05,59,10.50
2008,07,19,06,00,10.50
2008,07,19,06,01,10.50
2008,07,19,06,02,10.50
2008,07,19,06,03,10.50
2008,07,19,06,04,10.50
2008,07,19,06,05,10.50
2008,07,19,06,06,10.40
2008,07,19,06,07,10.40
2008,07,19,06,08,10.40
2008,07,19,06,09,10.30
2008,07,19,06,10,10.30
2008,07,19,06,11,10.30
2008,07,19,06,12,10.30
2008,07,19,06,13,10.30
2008,07,19,06,14,10.30
2008,07,19,06,15,10.30
2008,07,19,06,16,10.30
2008,07,19,06,17,10.30
2008,07,19,06,18,10.30
2008,07,19,06,19,10.40
2008,07,19,06,20,10.40
2008,07,19,06,21,10.30
2008,07,19,06,22,10.30
2008,07,19,06,23,10.30
2008,07,19,06,24,10.30
2008,07,19,06,25,10.30
2008,07,19,06,26,10.30
2008,07,19,06,27,10.30
2008,07,19,06,28,10.30
2008,07,19,06,29,10.30
2008,07,19,06,30,10.30
2008,07,19,06,31,10.30
2008,07,19,06,32,10.40
2008,07,19,06,33,10.40
2008,07,19,06,34,10.40
2008,07,19,06,35,10.50
2008,07,19,06,36,10.50
2008,07,19,06,37,10.60
2008,07,19,06,38,10.60
2008,07,19,06,39,10.70
2008,07,19,06,40,10.70
2008,07,19,06,41,10.80
2008,07,19,06,42,10.80
2008,07,19,06,43,10.80
2008,07,19,06,44,10.90
2008,07,19,06,45,11.00
2008,07,19,06,46,11.10
2008,07,19,06,47,11.20
2008,07,19,06,48,11.30
2008,07,19,06,49,11.40
2008,07,19,06,50,11.50
2008,07,19,06,51,11.60
2008,07,19,06,52,11.60
2008,07,19,06,53,11.70
2008,07,19,06,54,11.80
2008,07,19,06,55,11.90
2008,07,19,06,56,11.90
2008,07,19,06,57,12.00
2008,07,19,06,58,12.10
2008,07,19,06,59,12.20
2008,07,19,07,00,12.30
2008,07,19,07,01,12.30
2008,07,19,07,02,12.40
2008,07,19,07,03,12.50
2008,07,19,07,04,12.60
2008,07,19,07,05,12.60
2008,07,19,07,06,12.60
2008,07,19,07,07,12.60
2008,07,19,07,08,12.60
2008,07,19,07,09,12.60
2008,07,19,07,10,12.70
2008,07,19,07,11,12.70
2008,07,19,07,12,12.80
2008,07,19,07,13,12.80
2008,07,19,07,14,12.80
2008,07,19,07,15,12.90
2008,07,19,07,16,12.90
2008,07,19,07,17,12.90
2008,07,19,07,18,12.90
2008,07,19,07,19,12.90
2008,07,19,07,20,12.90
2008,07,19,07,21,13.00
2008,07,19,07,22,13.00
2008,07,19,07,23,13.00
2008,07,19,07,24,13.10
2008,07,19,07,25,13.10
2008,07,19,07,26,13.10
2008,07,19,07,27,13.00
2008,07,19,07,28,13.00
2008,07,19,07,29,13.00
2008,07,19,07,30,13.00
2008,07,19,07,31,12.90
2008,07,19,07,32,12.90
2008,07,19,07,33,12.90
2008,07,19,07,34,12.90
2008,07,19,07,35,12.90
2008,07,19,07,36,12.90
2008,07,19,07,37,13.00
2008,07,19,07,38,13.10
2008,07,19,07,39,13.20
2008,07,19,07,40,13.30
2008,07,19,07,41,13.40
2008,07,19,07,42,13.50
2008,07,19,07,43,13.60
2008,07,19,07,44,13.80
2008,07,19,07,45,13.80
2008,07,19,07,46,13.90
2008,07,19,07,47,14.10
2008,07,19,07,48,14.20
2008,07,19,07,49,14.30
2008,07,19,07,50,14.50
2008,07,19,07,51,14.60
2008,07,19,07,52,14.70
2008,07,19,07,53,14.90
2008,07,19,07,54,15.00
2008,07,19,07,55,15.00
2008,07,19,07,56,15.00
2008,07,19,07,57,15.10
2008,07,19,07,58,15.20
2008,07,19,07,59,15.30
2008,07,19,08,00,15.40
2008,07,19,08,01,15.50
2008,07,19,08,02,15.50
2008,07,19,08,03,15.50
2008,07,19,08,04,15.50
2008,07,19,08,05,15.60
2008,07,19,08,06,15.60
2008,07,19,08,07,15.60
2008,07,19,08,08,15.70
2008,07,19,08,09,15.70
2008,07,19,08,10,15.70
2008,07,19,08,11,15.70
2008,07,19,08,12,15.80
2008,07,19,08,13,15.80
2008,07,19,08,14,15.90
2008,07,19,08,15,15.80
2008,07,19,08,16,15.80
2008,07,19,08,17,15.70
2008,07,19,08,18,15.70
2008,07,19,08,19,15.70
2008,07,19,08,20,15.80
2008,07,19,08,21,15.80
2008,07,19,08,22,15.80
2008,07,19,08,23,15.80
2008,07,19,08,24,15.80
2008,07,19,08,25,15.80
2008,07,19,08,26,15.80
2008,07,19,08,27,15.80
2008,07,19,08,28,15.80
2008,07,19,08,29,15.80
2008,07,19,08,30,15.80
2008,07,19,08,31,15.90
2008,07,19,08,32,15.90
2008,07,19,08,33,16.00
2008,07,19,08,34,16.10
2008,07,19,08,35,16.10
2008,07,19,08,36,16.00
2008,07,19,08,37,16.00
2008,07,19,08,38,15.90
2008,07,19,08,39,15.80
2008,07,19,08,40,15.70
2008,07,19,08,41,15.60
2008,07,19,08,42,15.60
2008,07,19,08,43,15.70
2008,07,19,08,44,15.70
2008,07,19,08,45,15.70
2008,07,19,08,46,15.70
2008,07,19,08,47,15.80
2008,07,19,08,48,15.70
2008,07,19,08,49,15.80
2008,07,19,08,50,15.70
2008,07,19,08,51,15.50
2008,07,19,08,52,15.50
2008,07,19,08,53,15.40
2008,07,19,08,54,15.40
2008,07,19,08,55,15.40
2008,07,19,08,56,15.40
2008,07,19,08,57,15.30
2008,07,19,08,58,15.30
2008,07,19,08,59,15.20
2008,07,19,09,00,15.30
2008,07,19,09,01,15.30
2008,07,19,09,02,15.30
2008,07,19,09,03,15.30
2008,07,19,09,04,15.30
2008,07,19,09,05,15.30
2008,07,19,09,06,15.30
2008,07,19,09,07,15.30
2008,07,19,09,08,15.40
2008,07,19,09,09,15.40
2008,07,19,09,10,15.40
2008,07,19,09,11,15.40
2008,07,19,09,12,15.50
2008,07,19,09,13,15.50
2008,07,19,09,14,15.50
2008,07,19,09,15,15.50
2008,07,19,09,16,15.50
2008,07,19,09,17,15.40
2008,07,19,09,18,15.40
2008,07,19,09,19,15.40
2008,07,19,09,20,15.40
2008,07,19,09,21,15.40
2008,07,19,09,22,15.50
2008,07,19,09,23,15.60
2008,07,19,09,24,15.60
2008,07,19,09,25,15.60
2008,07,19,09,26,15.60
2008,07,19,09,27,15.60
2008,07,19,09,28,15.50
2008,07,19,09,29,15.40
2008,07,19,09,30,15.40
2008,07,19,09,31,15.40
2008,07,19,09,32,15.40
2008,07,19,09,33,15.40
2008,07,19,09,34,15.40
2008,07,19,09,35,15.40
2008,07,19,09,36,15.50
2008,07,19,09,37,15.50
2008,07,19,09,38,15.50
2008,07,19,09,39,15.50
2008,07,19,09,40,15.50
2008,07,19,09,41,15.40
2008,07,19,09,42,15.40
2008,07,19,09,43,15.40
2008,07,19,09,44,15.40
2008,07,19,09,45,15.40
2008,07,19,09,46,15.30
2008,07,19,09,47,15.30
2008,07,19,09,48,15.40
2008,07,19,09,49,15.40
2008,07,19,09,50,15.50
2008,07,19,09,51,15.50
2008,07,19,09,52,15.70
2008,07,19,09,53,15.70
2008,07,19,09,54,15.70
2008,07,19,09,55,15.60
2008,07,19,09,56,15.60
2008,07,19,09,57,15.60
2008,07,19,09,58,15.60
2008,07,19,09,59,15.60
2008,07,19,10,00,15.60
2008,07,19,10,01,15.60
2008,07,19,10,02,15.60
2008,07,19,10,03,15.70
2008,07,19,10,04,15.70
2008,07,19,10,05,15.80
2008,07,19,10,06,15.80
2008,07,19,10,07,15.80
2008,07,19,10,08,15.80
2008,07,19,10,09,15.80
2008,07,19,10,10,15.70
2008,07,19,10,11,15.60
2008,07,19,10,12,15.60
2008,07,19,10,13,15.50
2008,07,19,10,14,15.50
2008,07,19,10,15,15.50
2008,07,19,10,16,15.50
2008,07,19,10,17,15.50
2008,07,19,10,18,15.50
2008,07,19,10,19,15.70
2008,07,19,10,20,15.80
2008,07,19,10,21,15.80
2008,07,19,10,22,15.90
2008,07,19,10,23,15.90
2008,07,19,10,24,16.00
2008,07,19,10,25,16.00
2008,07,19,10,26,16.10
2008,07,19,10,27,16.10
2008,07,19,10,28,16.10
2008,07,19,10,29,16.00
2008,07,19,10,30,16.00
2008,07,19,10,31,15.90
2008,07,19,10,32,15.90
2008,07,19,10,33,15.90
2008,07,19,10,34,15.80
2008,07,19,10,35,15.80
2008,07,19,10,36,15.90
2008,07,19,10,37,15.90
2008,07,19,10,38,15.90
2008,07,19,10,39,16.00
2008,07,19,10,40,16.00
2008,07,19,10,41,16.00
2008,07,19,10,42,16.10
2008,07,19,10,43,16.10
2008,07,19,10,44,16.10
2008,07,19,10,45,16.10
2008,07,19,10,46,16.10
2008,07,19,10,47,16.10
2008,07,19,10,48,16.20
2008,07,19,10,49,16.30
2008,07,19,10,50,16.30
2008,07,19,10,51,16.40
2008,07,19,10,52,16.40
2008,07,19,10,53,16.40
2008,07,19,10,54,16.40
2008,07,19,10,55,16.40
2008,07,19,10,56,16.40
2008,07,19,10,57,16.40
2008,07,19,10,58,16.30
2008,07,19,10,59,16.30
2008,07,19,11,00,16.30
2008,07,19,11,01,16.40
2008,07,19,11,02,16.40
2008,07,19,11,03,16.40
2008,07,19,11,04,16.40
2008,07,19,11,05,16.30
2008,07,19,11,06,16.30
2008,07,19,11,07,16.30
2008,07,19,11,08,16.20
2008,07,19,11,09,16.30
2008,07,19,11,10,16.30
2008,07,19,11,11,16.40
2008,07,19,11,12,16.40
2008,07,19,11,13,16.30
2008,07,19,11,14,16.40
2008,07,19,11,15,16.40
2008,07,19,11,16,16.50
2008,07,19,11,17,16.60
2008,07,19,11,18,16.70
2008,07,19,11,19,16.70
2008,07,19,11,20,16.70
2008,07,19,11,21,16.70
2008,07,19,11,22,16.70
2008,07,19,11,23,16.70
2008,07,19,11,24,16.70
2008,07,19,11,25,16.70
2008,07,19,11,26,16.80
2008,07,19,11,27,16.90
2008,07,19,11,28,16.80
2008,07,19,11,29,16.80
2008,07,19,11,30,16.80
2008,07,19,11,31,16.80
2008,07,19,11,32,16.70
2008,07,19,11,33,16.70
2008,07,19,11,34,16.80
2008,07,19,11,35,16.80
2008,07,19,11,36,16.80
2008,07,19,11,37,16.80
2008,07,19,11,38,16.70
2008,07,19,11,39,16.70
2008,07,19,11,40,16.70
2008,07,19,11,41,16.80
2008,07,19,11,42,16.80
2008,07,19,11,43,16.90
2008,07,19,11,44,16.90
2008,07,19,11,45,16.90
2008,07,19,11,46,16.90
2008,07,19,11,47,17.00
2008,07,19,11,48,17.10
2008,07,19,11,49,17.20
2008,07,19,11,50,17.30
2008,07,19,11,51,17.30
2008,07,19,11,52,17.30
2008,07,19,11,53,17.30
2008,07,19,11,54,17.30
2008,07,19,11,55,17.30
2008,07,19,11,56,17.30
2008,07,19,11,57,17.30
2008,07,19,11,58,17.30
2008,07,19,11,59,17.30
2008,07,19,12,00,17.30
2008,07,19,12,01,17.30
2008,07,19,12,02,17.40
2008,07,19,12,03,17.40
2008,07,19,12,04,17.50
2008,07,19,12,05,17.50
2008,07,19,12,06,17.50
2008,07,19,12,07,17.50
2008,07,19,12,08,17.50
2008,07,19,12,09,17.50
2008,07,19,12,10,17.50
2008,07,19,12,11,17.60
2008,07,19,12,12,17.60
2008,07,19,12,13,17.70
2008,07,19,12,14,17.70
2008,07,19,12,15,17.60
2008,07,19,12,16,17.60
2008,07,19,12,17,17.50
2008,07,19,12,18,17.40
2008,07,19,12,19,17.40
2008,07,19,12,20,17.50
2008,07,19,12,21,17.50
2008,07,19,12,22,17.50
2008,07,19,12,23,17.50
2008,07,19,12,24,17.60
2008,07,19,12,25,17.60
2008,07,19,12,26,17.60
2008,07,19,12,27,17.70
2008,07,19,12,28,17.80
2008,07,19,12,29,17.80
2008,07,19,12,30,17.90
2008,07,19,12,31,17.90
2008,07,19,12,32,17.90
2008,07,19,12,33,17.90
2008,07,19,12,34,17.90
2008,07,19,12,35,17.90
2008,07,19,12,36,17.90
2008,07,19,12,37,17.80
2008,07,19,12,38,17.80
2008,07,19,12,39,17.70
2008,07,19,12,40,17.70
2008,07,19,12,41,17.60
2008,07,19,12,42,17.60
2008,07,19,12,43,17.60
2008,07,19,12,44,17.60
2008,07,19,12,45,17.60
2008,07,19,12,46,17.70
2008,07,19,12,47,17.80
2008,07,19,12,48,17.80
2008,07,19,12,49,17.70
2008,07,19,12,50,17.70
2008,07,19,12,51,17.60
2008,07,19,12,52,17.70
2008,07,19,12,53,17.70
2008,07,19,12,54,17.70
2008,07,19,12,55,17.70
2008,07,19,12,56,17.70
2008,07,19,12,57,17.70
2008,07,19,12,58,17.70
2008,07,19,12,59,17.80
2008,07,19,13,00,17.80
2008,07,19,13,01,17.90
2008,07,19,13,02,17.90
2008,07,19,13,03,17.90
2008,07,19,13,04,17.90
2008,07,19,13,05,17.90
2008,07,19,13,06,17.90
2008,07,19,13,07,17.90
2008,07,19,13,08,18.10
2008,07,19,13,09,18.20
2008,07,19,13,10,18.20
2008,07,19,13,11,18.20
2008,07,19,13,12,18.20
2008,07,19,13,13,18.20
2008,07,19,13,14,18.20
2008,07,19,13,15,18.20
2008,07,19,13,16,18.30
2008,07,19,13,17,18.30
2008,07,19,13,18,18.50
2008,07,19,13,19,18.50
2008,07,19,13,20,18.60
2008,07,19,13,21,18.70
2008,07,19,13,22,18.70
2008,07,19,13,23,18.80
2008,07,19,13,24,18.80
2008,07,19,13,25,18.90
2008,07,19,13,26,19.00
2008,07,19,13,27,18.90
2008,07,19,13,28,18.90
2008,07,19,13,29,18.80
2008,07,19,13,30,18.70
2008,07,19,13,31,18.70
2008,07,19,13,32,18.80
2008,07,19,13,33,18.90
2008,07,19,13,34,19.00
2008,07,19,13,35,19.00
2008,07,19,13,36,19.00
2008,07,19,13,37,19.00
2008,07,19,13,38,19.00
2008,07,19,13,39,19.10
2008,07,19,13,40,19.20
2008,07,19,13,41,19.20
2008,07,19,13,42,19.30
2008,07,19,13,43,19.40
2008,07,19,13,44,19.40
2008,07,19,13,45,19.40
2008,07,19,13,46,19.40
2008,07,19,13,47,19.40
2008,07,19,13,48,19.40
2008,07,19,13,49,19.40
2008,07,19,13,50,19.30
2008,07,19,13,51,19.40
2008,07,19,13,52,19.40
2008,07,19,13,53,19.50
2008,07,19,13,54,19.70
2008,07,19,13,55,19.80
2008,07,19,13,56,19.90
2008,07,19,13,57,19.90
2008,07,19,13,58,19.90
2008,07,19,13,59,20.00
2008,07,19,14,00,20.10
2008,07,19,14,01,20.20
2008,07,19,14,02,20.40
2008,07,19,14,03,20.40
2008,07,19,14,04,20.30
2008,07,19,14,05,20.20
2008,07,19,14,06,20.20
2008,07,19,14,07,20.10
2008,07,19,14,08,20.10
2008,07,19,14,09,20.00
2008,07,19,14,10,20.00
2008,07,19,14,11,20.10
2008,07,19,14,12,20.10
2008,07,19,14,13,20.20
2008,07,19,14,14,20.20
2008,07,19,14,15,20.20
2008,07,19,14,16,20.20
2008,07,19,14,17,20.30
2008,07,19,14,18,20.30
2008,07,19,14,19,20.40
2008,07,19,14,20,20.60
2008,07,19,14,21,20.70
2008,07,19,14,22,20.70
2008,07,19,14,23,20.70
2008,07,19,14,24,20.60
2008,07,19,14,25,20.60
2008,07,19,14,26,20.50
2008,07,19,14,27,20.40
2008,07,19,14,28,20.40
2008,07,19,14,29,20.50
2008,07,19,14,30,20.50
2008,07,19,14,31,20.40
2008,07,19,14,32,20.40
2008,07,19,14,33,20.40
2008,07,19,14,34,20.50
2008,07,19,14,35,20.60
2008,07,19,14,36,20.70
2008,07,19,14,37,20.70
2008,07,19,14,38,20.80
2008,07,19,14,39,20.80
2008,07,19,14,40,20.80
2008,07,19,14,41,20.80
2008,07,19,14,42,20.80
2008,07,19,14,43,20.70
2008,07,19,14,44,20.70
2008,07,19,14,45,20.60
2008,07,19,14,46,20.60
2008,07,19,14,47,20.70
2008,07,19,14,48,20.80
2008,07,19,14,49,20.90
2008,07,19,14,50,20.80
2008,07,19,14,51,20.80
2008,07,19,14,52,20.80
2008,07,19,14,53,20.80
2008,07,19,14,54,20.90
2008,07,19,14,55,21.10
2008,07,19,14,56,21.10
2008,07,19,14,57,21.10
2008,07,19,14,58,21.20
2008,07,19,14,59,21.10
2008,07,19,15,00,21.10
2008,07,19,15,01,21.10
2008,07,19,15,02,21.10
2008,07,19,15,03,21.20
2008,07,19,15,04,21.30
2008,07,19,15,05,21.30
2008,07,19,15,06,21.30
2008,07,19,15,07,21.30
2008,07,19,15,08,21.30
2008,07,19,15,09,21.40
2008,07,19,15,10,21.50
2008,07,19,15,11,21.60
2008,07,19,15,12,21.60
2008,07,19,15,13,21.60
2008,07,19,15,14,21.60
2008,07,19,15,15,21.60
2008,07,19,15,16,21.60
2008,07,19,15,17,21.60
2008,07,19,15,18,21.70
2008,07,19,15,19,21.80
2008,07,19,15,20,21.80
2008,07,19,15,21,21.80
2008,07,19,15,22,21.90
2008,07,19,15,23,21.90
2008,07,19,15,24,21.80
2008,07,19,15,25,21.70
2008,07,19,15,26,21.60
2008,07,19,15,27,21.60
2008,07,19,15,28,21.70
2008,07,19,15,29,21.80
2008,07,19,15,30,21.70
2008,07,19,15,31,21.60
2008,07,19,15,32,21.50
2008,07,19,15,33,21.60
2008,07,19,15,34,21.60
2008,07,19,15,35,21.50
2008,07,19,15,36,21.60
2008,07,19,15,37,21.70
2008,07,19,15,38,21.70
2008,07,19,15,39,21.80
2008,07,19,15,40,21.70
2008,07,19,15,41,21.70
2008,07,19,15,42,21.70
2008,07,19,15,43,21.60
2008,07,19,15,44,21.50
2008,07,19,15,45,21.30
2008,07,19,15,46,21.20
2008,07,19,15,47,21.20
2008,07,19,15,48,21.20
2008,07,19,15,49,21.20
2008,07,19,15,50,21.10
2008,07,19,15,51,21.10
2008,07,19,15,52,21.10
2008,07,19,15,53,21.00
2008,07,19,15,54,21.00
2008,07,19,15,55,21.00
2008,07,19,15,56,21.00
2008,07,19,15,57,21.00
2008,07,19,15,58,21.10
2008,07,19,15,59,21.20
2008,07,19,16,00,21.30
2008,07,19,16,01,21.30
2008,07,19,16,02,21.30
2008,07,19,16,03,21.40
2008,07,19,16,04,21.50
2008,07,19,16,05,21.60
2008,07,19,16,06,21.60
2008,07,19,16,07,21.70
2008,07,19,16,08,21.70
2008,07,19,16,09,21.60
2008,07,19,16,10,21.70
2008,07,19,16,11,21.70
2008,07,19,16,12,21.60
2008,07,19,16,13,21.60
2008,07,19,16,14,21.60
2008,07,19,16,15,21.60
2008,07,19,16,16,21.60
2008,07,19,16,17,21.70
2008,07,19,16,18,21.70
2008,07,19,16,19,21.70
2008,07,19,16,20,21.70
2008,07,19,16,21,21.70
2008,07,19,16,22,21.70
2008,07,19,16,23,21.70
2008,07,19,16,24,21.70
2008,07,19,16,25,21.70
2008,07,19,16,26,21.70
2008,07,19,16,27,21.80
2008,07,19,16,28,21.80
2008,07,19,16,29,21.90
2008,07,19,16,30,21.80
2008,07,19,16,31,21.80
2008,07,19,16,32,21.80
2008,07,19,16,33,21.90
2008,07,19,16,34,22.00
2008,07,19,16,35,21.90
2008,07,19,16,36,21.90
2008,07,19,16,37,21.90
2008,07,19,16,38,21.90
2008,07,19,16,39,21.90
2008,07,19,16,40,21.90
2008,07,19,16,41,21.90
2008,07,19,16,42,21.80
2008,07,19,16,43,21.80
2008,07,19,16,44,21.80
2008,07,19,16,45,21.80
2008,07,19,16,46,21.80
2008,07,19,16,47,21.90
2008,07,19,16,48,21.90
2008,07,19,16,49,21.90
2008,07,19,16,50,21.90
2008,07,19,16,51,21.80
2008,07,19,16,52,21.80
2008,07,19,16,53,21.80
2008,07,19,16,54,21.80
2008,07,19,16,55,21.80
2008,07,19,16,56,21.80
2008,07,19,16,57,21.80
2008,07,19,16,58,21.80
2008,07,19,16,59,21.90
2008,07,19,17,00,22.00
2008,07,19,17,01,22.00
2008,07,19,17,02,22.00
2008,07,19,17,03,21.90
2008,07,19,17,04,21.90
2008,07,19,17,05,21.80
2008,07,19,17,06,21.70
2008,07,19,17,07,21.70
2008,07,19,17,08,21.70
2008,07,19,17,09,21.70
2008,07,19,17,10,21.80
2008,07,19,17,11,21.80
2008,07,19,17,12,21.80
2008,07,19,17,13,21.90
2008,07,19,17,14,22.00
2008,07,19,17,15,22.20
2008,07,19,17,16,22.20
2008,07,19,17,17,22.20
2008,07,19,17,18,22.20
2008,07,19,17,19,22.30